Regional Weather Roundup
Issued by NWS

Current Version | Previous Version | Text Only | Print | Product List | Glossary On
Versions: 1 2 3 4 5 6 7 8 9 10 11 12 13 14 15 16 17 18 19 20 21 22 23 24 25 26 27 28 29 30 31 32 33 34 35 36 37 38 39 40 41 42 43 44 45 46 47 48 49 50
000
ASUS44 KBMX 281710
RWRAL

ALABAMA REGIONAL WEATHER ROUNDUP
NATIONAL WEATHER SERVICE BIRMINGHAM AL
1200 PM CDT SUN MAY 28 2017

NOTE: "FAIR" INDICATES FEW OR NO CLOUDS BELOW 12,000 FEET
WITH NO SIGNIFICANT WEATHER AND/OR OBSTRUCTIONS TO VISIBILITY.

THE REMARK "TC" DENOTES TEMPERATURE IN DEGREES CELSIUS.

ALZ001>011-014-016>018-020-281800-
NORTH ALABAMA

CITY           SKY/WX    TMP DP  RH WIND       PRES   REMARKS
MUSCLE SHOALS  MOSUNNY   80  63  55 SW16      29.92R
HUNTSVILLE     PTSUNNY   77  65  66 SW10      29.90S
DECATUR        CLOUDY    78  64  61 S12G20    29.90R
HALEYVILLE     FAIR      75  65  70 SW16G22   29.96R
GADSDEN        CLOUDY    77  68  73 SW7       29.97F
$$

ALZ012-013-022-023-030>036-040>044-281800-
WEST CENTRAL ALABAMA

CITY           SKY/WX    TMP DP  RH WIND       PRES   REMARKS
TUSCALOOSA     CLOUDY    78  64  61 S13       29.99F
$$

ALZ015-024>027-033>036-040>044-281800-
CENTRAL ALABAMA

CITY           SKY/WX    TMP DP  RH WIND       PRES   REMARKS
BIRMINGHAM     CLOUDY    78  64  61 SW10      30.02F
MONTGOMERY     CLOUDY    85  65  51 W8        30.03S
SHELBY CO ARPT CLOUDY    80  66  62 VRB6      30.03R
MAXWELL AFB    MOSUNNY   83  68  60 W5        30.03R
GREENVILLE     FAIR      81  70  69 NW6       30.05R
$$

ALZ019-021-028-029-037-038-045>048-281800-
EAST CENTRAL ALABAMA

CITY           SKY/WX    TMP DP  RH WIND       PRES   REMARKS
ANNISTON       CLOUDY    76  69  79 SW13      30.00R
ALEXANDER CITY MOSUNNY   80  66  63 W7        30.03R
AUBURN         MOSUNNY   84  72  67 SW12      30.02F
$$

ALZ051>064-281800-
SOUTHWEST ALABAMA

CITY           SKY/WX    TMP DP  RH WIND       PRES   REMARKS
MOBILE         CLOUDY    84  73  69 S7        30.06S HX  90
BROOKLEY FIELD CLOUDY    83  76  79 S5        30.08R HX  91
EVERGREEN      LGT RAIN  82  70  66 VRB6      30.07R
$$

ALZ049-050-065>069-281800-
SOUTHEAST ALABAMA

CITY           SKY/WX    TMP DP  RH WIND       PRES   REMARKS
DOTHAN         MOSUNNY   89  69  51 NW17      30.06S HX  93
OZARK          MOSUNNY   89  71  56 W12G17    30.03S HX  94
TROY           MOSUNNY   88  72  58 W12       30.03S HX  94
EUFAULA        FAIR      89  71  55 W10G20    30.00F HX  95
$$



USA.gov is the U.S. government's official web portal to all federal, state and local government web resources and services.